Location: Aldenham
(51.6667°N, 0.3500°W)
Time: 16:43:31
(UTC+00:00)

ATLAS CENTAUR R/B - Pass Details

Date: 18 November 2025
Orbit: 342 x 419 km, 64.6° (Epoch: 13 December)

Event Time Altitude Azimuth Distance (km) Brightness Sun altitude
Rises 17:17:22 0° 263° (W) 2,444 6.6 -10.7°
Reaches altitude 10° 17:19:51 10° 280° (W) 1,578 4.7 -11.1°
Maximum altitude 17:22:35 21° 331° (NNW) 1,076 2.9 -11.5°
Drops below altitude 10° 17:25:18 10° 22° (NNE) 1,576 3.3 -11.9°
Enters shadow 17:25:32 - 24° (NNE) 1,649 3.4 -11.9°
